Home   Weather   Ankara   Past weeks

Flag for Turkey Past Weather in Ankara, Turkey — Yesterday and Last 2 Weeks

Now
50 °F

Clear.


Feels Like: 50 °F
Forecast: 39 / 72 °F
Wind: 2 mph from North

Location: Ankara / Esenboga

Current Time: Sep 26, 2016 at 11:45:34 PM

Latest Report: Sep 26, 2016 at 10:50 PM


Visibility: 10 mi

Pressure: 30.12 "Hg (27.11 "Hg at 871m altitude)

Humidity: 58%

Dew Point: 36 °F

Location of AnkaraLocation

Past Weather in Ankara — Graph

°F

Ankara Temperature Yesterday

Maximum temperature yesterday: 61 °F (at 1:50 PM)
Minimum temperature yesterday: 41 °F (at 6:20 AM)
Average temperature yesterday: 52 °F

High & Low Weather Summary for the Past Weeks

 TemperatureHumidityPressure
High86 °F (Sep 12, 2:50 PM)94% (Sep 22, 4:20 AM)30.30 "Hg (Sep 22, 4:20 AM)
Low37 °F (Sep 24, 5:20 AM)13% (Sep 17, 4:50 PM)29.77 "Hg (Sep 20, 12:50 PM)
Average61 °F52%30.02 "Hg
* Reported Sep 11 10:20 PM — Sep 26 10:20 PM, Ankara, Weather by CustomWeather, © 2016

Note: Actual official high and low records may vary slightly from our data, if they occured in-between our weather recording intervals... More about our weather records

Advertising

Ankara Weather History for the Previous 24 Hours

Scroll right to see more
 ConditionsComfort  
Time TempWeatherWind HumidityBarometerVisibility
10:20 PM
Mon, Sep 26
48 °FClear.2 mph66%30.09 "Hg10 mi
9:50 PM52 °FClear.2 mph54%30.09 "Hg10 mi
9:20 PM52 °FClear.2 mph54%30.09 "Hg10 mi
8:50 PM55 °FClear.6 mph44%30.09 "Hg10 mi
8:20 PM57 °FPassing clouds.2 mph41%30.09 "HgN/A
7:50 PM57 °FPassing clouds.2 mph41%30.07 "HgN/A
7:20 PM59 °FPassing clouds.3 mph36%30.07 "HgN/A
6:50 PM61 °FPassing clouds.3 mph34%30.07 "HgN/A
6:20 PM63 °FScattered clouds.3 mph30%30.04 "HgN/A
5:50 PM64 °FScattered clouds.2 mph28%30.04 "HgN/A
5:20 PM66 °FScattered clouds.2 mph26%30.04 "HgN/A
4:50 PM64 °FScattered clouds.3 mph30%30.04 "HgN/A
4:20 PM64 °FScattered clouds.6 mph30%30.04 "HgN/A
3:50 PM64 °FScattered clouds.5 mph30%30.04 "HgN/A
3:20 PM64 °FScattered clouds.2 mph30%30.04 "HgN/A
2:50 PM63 °FScattered clouds.2 mph30%30.04 "HgN/A
2:20 PM63 °FScattered clouds.5 mph32%30.04 "HgN/A
1:50 PM63 °FScattered clouds.6 mph27%30.04 "HgN/A
1:20 PM63 °FScattered clouds.7 mph30%30.04 "HgN/A
12:50 PM63 °FScattered clouds.5 mph30%30.04 "HgN/A
12:20 PM61 °FScattered clouds.5 mph31%30.04 "HgN/A
11:50 AM61 °FScattered clouds.3 mph36%30.04 "HgN/A
11:20 AM61 °FScattered clouds.3 mph36%30.04 "HgN/A
10:50 AM59 °FPassing clouds.3 mph42%30.07 "HgN/A
10:20 AM57 °FPassing clouds.3 mph48%30.07 "HgN/A
9:50 AM54 °FPassing clouds.5 mph58%30.07 "HgN/A
9:20 AM52 °FSunny.3 mph58%30.07 "Hg10 mi
8:50 AM48 °FPassing clouds.3 mph66%30.07 "HgN/A
8:20 AM45 °FSunny.2 mph76%30.07 "Hg10 mi
7:50 AM43 °FSunny.2 mph81%30.07 "Hg10 mi
7:20 AM41 °FPassing clouds.3 mph81%30.04 "HgN/A
6:50 AM43 °FSunny.2 mph76%30.04 "Hg10 mi
6:20 AM41 °FClear.2 mph81%30.04 "Hg10 mi
5:50 AM39 °FClear.1 mph87%30.04 "Hg10 mi
5:20 AM39 °FClear.2 mph81%30.04 "Hg10 mi
4:50 AM41 °FClear.2 mph81%30.04 "Hg10 mi
4:20 AM43 °FPassing clouds.3 mph76%30.04 "HgN/A
3:50 AM43 °FClear.2 mph76%30.04 "Hg10 mi
3:20 AM43 °FClear.2 mph76%30.04 "Hg10 mi
2:50 AM41 °FClear.2 mph81%30.04 "Hg10 mi
2:20 AM43 °FClear.3 mph76%30.04 "Hg10 mi
1:50 AM45 °FClear.8 mph71%30.04 "Hg10 mi
1:20 AM46 °FPassing clouds.3 mph66%30.04 "HgN/A
12:50 AM46 °FPassing clouds.6 mph66%30.04 "HgN/A
12:20 AM48 °FPassing clouds.3 mph62%30.04 "HgN/A
11:50 PM
Sun, Sep 25
48 °FPassing clouds.5 mph62%30.04 "HgN/A
11:20 PM48 °FPassing clouds.5 mph62%30.04 "HgN/A
Weather by CustomWeather, © 2016

See weather overviewHow to use our weather pages